Epoch 2024 Oct. 17.0 TT = JDT 2460600.5 T 2024 Sept. 28.18687 TT Rudenko q 1.0687608 (2000.0) P Q n 0.18686510 Peri. 332.52327 +0.18424465 +0.96836252 a 3.0300555 Node 307.60778 -0.85828722 +0.07506781 e 0.6472801 Incl. 12.26631 -0.47895402 +0.23798917 P 5.27 >From 367 observations 2019 Feb. 19-2024 Apr. 4, mean residual 0".6.
H = 18.0 G = 0.15